Location: Elaina
(34.1445°N, 106.7742°W)
Time: 12:25:14
(UTC+00:00)

NOSS 3-1 (C) - Pass Details

Date: 23 March 2026
Orbit: 618 x 1583 km, 63.4° (Epoch: 10 January)

Event Time Altitude Azimuth Distance (km) Brightness Sun altitude
Rises 04:14:37 0° 256° (WSW) 2,919 6.6 -35.3°
Reaches altitude 10° 04:17:33 10° 278° (W) 2,081 5.9 -35.8°
Maximum altitude 04:20:32 17° 318° (NW) 1,777 5.5 -36.3°
Drops below altitude 10° 04:23:48 10° 358° (N) 2,322 5.8 -36.9°
Sets 04:27:23 0° 18° (NNE) 3,434 6.5 -37.5°
